| time (UTC) | temp F | wind direction | speed MPH | gust MPH | rain 1hr in | rain 24hr in | rain mn in | humidity % | barometer mb |
| 20260505073045 | 69 | 200 | 2.0 | 6.0 | 0.00 | 0.00 | 0.00 | 62 | 1013.0 |
| 20260505071533 | 69 | 265 | 0.0 | 8.0 | 0.00 | 0.00 | 0.00 | 62 | 1013.2 |
| 20260505070030 | 68 | 219 | 0.0 | 6.0 | 0.00 | 0.00 | 0.00 | 63 | 1013.4 |
| 20260505064527 | 69 | 174 | 1.0 | 7.0 | 0.00 | 0.00 | 0.00 | 63 | 1013.6 |
| 20260505063024 | 69 | 288 | 1.0 | 6.0 | 0.00 | 0.00 | 0.00 | 63 | 1013.9 |
| 20260505061523 | 69 | 240 | 1.0 | 6.0 | 0.00 | 0.00 | 0.00 | 63 | 1014.1 |
| 20260505060025 | 69 | 241 | 0.0 | 6.0 | 0.00 | 0.00 | 0.00 | 63 | 1014.2 |
| 20260505054522 | 69 | 218 | 1.0 | 5.0 | 0.00 | 0.00 | 0.00 | 63 | 1014.4 |
| 20260505053020 | 69 | 229 | 1.0 | 7.0 | 0.00 | 0.00 | 0.00 | 63 | 1014.5 |
| 20260505051521 | 69 | 227 | 3.0 | 10.0 | 0.00 | 0.00 | 0.00 | 63 | 1014.6 |
| 20260505041611 | 69 | 226 | 0.0 | 7.0 | 0.00 | 0.00 | 0.00 | 63 | 1014.7 |
| 20260505040100 | 68 | 239 | 3.0 | 7.0 | 0.00 | 0.00 | 0.00 | 63 | 1014.8 |
| 20260505034551 | 69 | 266 | 0.0 | 5.0 | 0.00 | 0.00 | 0.00 | 63 | 1014.7 |
| 20260505033048 | 69 | 208 | 0.0 | 7.0 | 0.00 | 0.00 | 0.00 | 63 | 1014.6 |
| 20260505031547 | 69 | 274 | 0.0 | 6.0 | 0.00 | 0.00 | 0.00 | 63 | 1014.8 |
| 20260505030041 | 69 | 218 | 2.0 | 7.0 | 0.00 | 0.00 | 0.00 | 63 | 1014.6 |
| 20260505024533 | 69 | 191 | 2.0 | 7.0 | 0.00 | 0.00 | 0.00 | 62 | 1014.7 |
| 20260505023036 | 69 | 250 | 2.0 | 7.0 | 0.00 | 0.00 | 0.00 | 63 | 1014.5 |
| 20260505021527 | 69 | 166 | 1.0 | 5.0 | 0.00 | 0.00 | 0.00 | 63 | 1014.4 |
| 20260505020021 | 69 | 225 | 2.0 | 5.0 | 0.00 | 0.00 | 0.00 | 62 | 1014.5 |
| 20260505014516 | 69 | 202 | 1.0 | 7.0 | 0.00 | 0.00 | 0.00 | 62 | 1014.7 |
| 20260505013010 | 69 | 220 | 1.0 | 5.0 | 0.00 | 0.00 | 0.00 | 62 | 1014.8 |
| 20260505011508 | 70 | 269 | 0.0 | 6.0 | 0.00 | 0.00 | 0.00 | 61 | 1015.0 |
| 20260505010100 | 70 | 257 | 0.0 | 5.0 | 0.00 | 0.00 | 0.00 | 62 | 1014.9 |
| 20260505004557 | 70 | 268 | 0.0 | 6.0 | 0.00 | 0.00 | 0.00 | 61 | 1015.0 |
| 20260505003051 | 71 | 221 | 1.0 | 6.0 | 0.00 | 0.00 | 0.00 | 60 | 1014.8 |
| 20260505001601 | 73 | 261 | 1.0 | 5.0 | 0.00 | 0.00 | 0.00 | 58 | 1014.9 |
| 20260505000054 | 74 | 192 | 1.0 | 6.0 | 0.00 | 0.00 | 0.00 | 56 | 1015.0 |
| 20260504234550 | 74 | 216 | 0.0 | 7.0 | 0.00 | 0.00 | 0.00 | 56 | 1015.1 |
| 20260504233033 | 76 | 228 | 1.0 | 6.0 | 0.00 | 0.00 | 0.00 | 53 | 1015.1 |
| 20260504231528 | 76 | 180 | 0.0 | 5.0 | 0.00 | 0.00 | 0.00 | 54 | 1014.9 |
| 20260504230023 | 77 | 165 | 1.0 | 6.0 | 0.00 | 0.00 | 0.00 | 52 | 1014.9 |
| 20260504224519 | 77 | 166 | 0.0 | 6.0 | 0.00 | 0.00 | 0.00 | 51 | 1015.2 |
| 20260504223014 | 78 | 167 | 0.0 | 5.0 | 0.00 | 0.00 | 0.00 | 50 | 1015.1 |
| 20260504221516 | 78 | 203 | 1.0 | 6.0 | 0.00 | 0.00 | 0.00 | 49 | 1015.0 |
| 20260504220005 | 78 | 167 | 0.0 | 7.0 | 0.00 | 0.00 | 0.00 | 47 | 1015.1 |
| 20260504214501 | 78 | 219 | 0.0 | 6.0 | 0.00 | 0.00 | 0.00 | 47 | 1015.2 |
| 20260504213125 | 79 | 131 | 1.0 | 8.0 | 0.00 | 0.00 | 0.00 | 46 | 1015.1 |
| 20260504211555 | 80 | 181 | 0.0 | 5.0 | 0.00 | 0.00 | 0.00 | 44 | 1015.3 |
| 20260504210052 | 80 | 217 | 0.0 | 6.0 | 0.00 | 0.00 | 0.00 | 43 | 1015.4 |
| 20260504204551 | 79 | 202 | 1.0 | 5.0 | 0.00 | 0.00 | 0.00 | 44 | 1015.4 |
| 20260504203047 | 77 | 153 | 1.0 | 8.0 | 0.00 | 0.00 | 0.00 | 47 | 1015.6 |
| 20260504201537 | 78 | 124 | 0.0 | 5.0 | 0.00 | 0.00 | 0.00 | 44 | 1015.6 |
| 20260504200033 | 78 | 138 | 1.0 | 9.0 | 0.00 | 0.00 | 0.00 | 44 | 1015.8 |
| 20260504194529 | 78 | 103 | 0.0 | 8.0 | 0.00 | 0.00 | 0.00 | 44 | 1016.1 |
| 20260504193024 | 77 | 164 | 0.0 | 7.0 | 0.00 | 0.00 | 0.00 | 43 | 1016.2 |
| 20260504191520 | 79 | 222 | 0.0 | 4.0 | 0.00 | 0.00 | 0.00 | 42 | 1016.5 |
| 20260504190016 | 79 | 165 | 0.0 | 4.0 | 0.00 | 0.00 | 0.00 | 41 | 1016.7 |
| 20260504184514 | 81 | 84 | 0.0 | 3.0 | 0.00 | 0.00 | 0.00 | 39 | 1016.8 |
| 20260504183007 | 79 | 245 | 0.0 | 4.0 | 0.00 | 0.00 | 0.00 | 39 | 1017.1 |
| 20260504181502 | 79 | 209 | 0.0 | 6.0 | 0.00 | 0.00 | 0.00 | 37 | 1017.0 |
| 20260504180057 | 79 | 132 | 0.0 | 3.0 | 0.00 | 0.00 | 0.00 | 38 | 1017.1 |
| 20260504174602 | 78 | 176 | 0.0 | 5.0 | 0.00 | 0.00 | 0.00 | 45 | 1017.2 |
| 20260504173052 | 77 | 129 | 2.0 | 6.0 | 0.00 | 0.00 | 0.00 | 44 | 1017.4 |
| 20260504171544 | 77 | 146 | 2.0 | 6.0 | 0.00 | 0.00 | 0.00 | 49 | 1017.5 |
| 20260504110107 | 0 | 0.0 | 0.0 | 0.00 | 0.00 | 0.00 | 1017.1 | ||
| 20260504081524 | 63 | 48 | 0.0 | 0.0 | 0.00 | 0.00 | 0.00 | 30 | 1017.4 |